Simultaneous Nadir Overpasses (SNOs) Predictions

Prediction of SNOs over PacNW region [( 10.00, 139.50) to ( 22.70, 165.60)] between AQUA and NPP Satellites:

Table of predicted SNOs over PacNW region for the next 30.0 days since TLE Epoch: 9/13/2019
Index Date (AQUA) Time (AQUA) AQUA Lat,Lon Date (NPP) Time (NPP) NPP Lat,Lon Distance(km) Time Diff (sec)
1 09/19/2019 15:09:45 22.62, 159.85 09/19/2019 15:11:26 23.22, 157.25 274.10 101
2 09/22/2019 03:31:37 22.66, 147.52 09/22/2019 03:28:08 24.20, 145.38 278.36 209
3 09/27/2019 15:59:14 22.62, 147.47 09/27/2019 16:02:09 23.29, 144.59 304.07 175
4 10/05/2019 15:09:50 22.58, 159.81 10/05/2019 15:11:25 23.17, 157.26 269.34 95
5 10/08/2019 03:31:41 22.68, 147.49 10/08/2019 03:28:11 24.51, 145.32 300.15 210




NCC Satellite Simultaneous Nadir Overpasses (SNOs) Prediction Service
